Hourly Weather Roundup
Issued by NWS Central Illinois

Home | Current Version | Previous Version | Graphics & Text | Print | Product List | Glossary On
Versions: 1 2 3 4 5 6 7 8 9 10 11 12 13 14 15 16 17 18 19 20 21 22 23 24 25 26 27 28 29 30 31 32 33 34 35 36 37 38 39 40 41 42 43 44 45 46 47 48 49 50
000
NZUS43 KILX 221510
HWRILX

AREA WEATHER ROUNDUP
NATIONAL WEATHER SERVICE, LINCOLN IL
900 AM CST SAT NOV 22 2014


CITY           SKY/WX    TMP DP  RH WIND       PRES   REMARKS
BLOOMINGTON    CLOUDY    43  40  89 S16       30.05F
CHAMPAIGN      CLOUDY    44  40  85 S17       30.08F
DECATUR        CLOUDY    49  42  77 S16       30.08F
FLORA          PTSUNNY   52  42  69 S15       30.17F
GALESBURG      CLOUDY    45  41  85 S12       29.98F
JACKSONVILLE   CLOUDY    49  42  77 S12G18    30.03F
LACON          CLOUDY    44  37  78 S9        30.00F
LAWRENCEVILLE  CLOUDY    52  41  66 S15       30.19F
LITCHFIELD     CLOUDY    46  40  82 S16       30.08F
$$


CITY           SKY/WX    TMP DP  RH WIND       PRES   REMARKS
LINCOLN        PTSUNNY   47  40  77 S12G18    30.05F
MACOMB         CLOUDY    46  42  88 S9        30.01F
MATTOON        CLOUDY    46  38  73 S14G21    30.11F
MT CARMEL AP   CLOUDY    54  39  58 S15       30.19S
OLNEY-NOBLE AP CLOUDY    52  41  66 S8        30.17F
PARIS          CLOUDY    46  39  78 S17G24    30.13F
PEORIA         CLOUDY    44  39  82 S13       30.02F HAZE
PONTIAC        CLOUDY    44  40  85 S13       30.04S
RANTOUL        CLOUDY    46  41  85 S10       30.08F
ROBINSON       CLOUDY    48  38  69 S14       30.18F
SPRINGFIELD    PTSUNNY   49  41  74 S20       30.06F
TAYLORVILLE    CLOUDY    46  41  81 S15G22    30.07F
$$

...REGIONAL REPORTS...


CITY           SKY/WX    TMP DP  RH WIND       PRES   REMARKS
CHICAGO O`HARE CLOUDY    38  36  92 SW10      30.00F FOG     WCI  31
KANKAKEE       CLOUDY    41  38  87 S17G23    30.05F WCI  33
MOLINE         CLOUDY    45  41  86 S9        29.94F FOG
MOUNT VERNON   CLOUDY    54  45  71 S17G24    30.18S
PITTSFIELD     PTSUNNY   50  44  79 S10G16    30.03F
QUINCY         CLOUDY    51  45  79 S14       30.00S
ROCKFORD       DRZL/FOG  37  36  96 S9        29.98F VSB 1/2 WCI  30
$$


CITY           SKY/WX    TMP DP  RH WIND       PRES   REMARKS
BURLINGTON     CLOUDY    48  43  82 S10       29.96S
CEDAR RAPIDS   FOG       38  38 100 S8        29.90F VSB 1/16WCI  32
DES MOINES     CLOUDY    43  40  89 S13       29.88F FOG
KIRKSVILLE     CLOUDY    53  48  83 SW14      29.96S
OTTUMWA        FOG       45  44  97 SW7       29.91F VSB 1/2
ST LOUIS       CLOUDY    54  44  69 S10       30.09F
$$


CITY           SKY/WX    TMP DP  RH WIND       PRES   REMARKS
TERRE HAUTE    CLOUDY    48  38  68 S15G22    30.16F
EVANSVILLE     CLOUDY    54  40  59 S14       30.24S
INDIANAPOLIS   CLOUDY    46  38  73 S14       30.16
LAFAYETTE      CLOUDY    44  38  79 S8        30.11F
MADISON        FOG       35  34  96 S13       29.92F VSB 1/2 WCI  26
MILWAUKEE      FOG       36  34  92 SW12      29.96F VSB 1   WCI  28
$$





USA.gov is the U.S. government's official web portal to all federal, state and local government web resources and services.